Satellite-Ground Cal/Val Region Overpasses Predictions

Prediction of Satellite NPP Overpassing Cal/Val Region: PacNW

Region Location: (Latitude: 10.00, Longitude: 139.50) to (Latitude: 22.70, Longitude: 165.60).

Table of predicted overpasses for the next 14.0 days since TLE Epoch: 3/29/2025
Interval Starting Time Starting Location Ending Time Ending Location
1 03/29/2025 03:43:01 ( 10.05, 144.13) 03/29/2025 03:46:36 ( 22.67, 141.12)
2 03/29/2025 14:34:46 ( 17.92, 165.59) 03/29/2025 14:37:00 ( 10.05, 163.75)
3 03/29/2025 16:14:55 ( 22.67, 141.38) 03/29/2025 16:17:07 ( 14.93, 139.50)
4 03/30/2025 03:24:02 ( 10.05, 148.88) 03/30/2025 03:27:37 ( 22.67, 145.87)
5 03/30/2025 15:55:56 ( 22.67, 146.13) 03/30/2025 15:59:31 ( 10.05, 143.12)
6 03/31/2025 03:05:02 ( 10.05, 153.63) 03/31/2025 03:08:37 ( 22.67, 150.62)
7 03/31/2025 15:36:56 ( 22.66, 150.88) 03/31/2025 15:40:31 ( 10.04, 147.87)
8 04/01/2025 02:46:02 ( 10.00, 158.39) 04/01/2025 02:49:38 ( 22.68, 155.37)
9 04/01/2025 15:17:57 ( 22.66, 155.63) 04/01/2025 15:21:32 ( 10.03, 152.62)
10 04/02/2025 02:27:02 ( 10.01, 163.14) 04/02/2025 02:30:38 ( 22.69, 160.12)
11 04/02/2025 14:58:57 ( 22.65, 160.38) 04/02/2025 15:02:32 ( 10.02, 157.37)
12 04/03/2025 02:10:49 ( 19.76, 165.59) 04/03/2025 02:11:39 ( 22.70, 164.87)
13 04/03/2025 03:49:33 ( 10.01, 142.52) 04/03/2025 03:53:08 ( 22.63, 139.51)
14 04/03/2025 14:39:57 ( 22.69, 165.14) 04/03/2025 14:43:33 ( 10.01, 162.12)
15 04/03/2025 16:21:27 ( 22.70, 139.76) 04/03/2025 16:21:45 ( 21.64, 139.50)
16 04/04/2025 03:30:33 ( 10.03, 147.26) 04/04/2025 03:34:08 ( 22.65, 144.26)
17 04/04/2025 16:02:27 ( 22.68, 144.51) 04/04/2025 16:06:03 ( 10.00, 141.49)
18 04/05/2025 03:11:34 ( 10.04, 152.01) 04/05/2025 03:15:09 ( 22.66, 149.00)
19 04/05/2025 15:43:28 ( 22.67, 149.26) 04/05/2025 15:47:03 ( 10.04, 146.25)
20 04/06/2025 02:52:34 ( 10.06, 156.76) 04/06/2025 02:56:09 ( 22.68, 153.75)
21 04/06/2025 15:24:28 ( 22.65, 154.01) 04/06/2025 15:28:03 ( 10.03, 151.00)
22 04/07/2025 02:33:34 ( 10.02, 161.52) 04/07/2025 02:37:10 ( 22.69, 158.50)
23 04/07/2025 15:05:28 ( 22.69, 158.77) 04/07/2025 15:09:04 ( 10.01, 155.75)
24 04/08/2025 02:15:25 ( 12.97, 165.59) 04/08/2025 02:18:10 ( 22.66, 163.26)
25 04/08/2025 03:56:05 ( 10.03, 140.89) 04/08/2025 03:57:46 ( 15.97, 139.51)
26 04/08/2025 14:46:28 ( 22.67, 163.51) 04/08/2025 14:50:03 ( 10.04, 160.51)
27 04/09/2025 03:37:05 ( 10.06, 145.64) 04/09/2025 03:40:40 ( 22.68, 142.63)
28 04/09/2025 14:30:39 ( 11.49, 165.59) 04/09/2025 14:31:04 ( 10.02, 165.25)
29 04/09/2025 16:08:59 ( 22.65, 142.89) 04/09/2025 16:12:34 ( 10.02, 139.88)
30 04/10/2025 03:18:05 ( 10.02, 150.40) 04/10/2025 03:21:40 ( 22.64, 147.39)
31 04/10/2025 15:49:58 ( 22.68, 147.65) 04/10/2025 15:53:33 ( 10.06, 144.64)
32 04/11/2025 02:59:05 ( 10.05, 155.15) 04/11/2025 03:02:40 ( 22.67, 152.14)
33 04/11/2025 15:30:59 ( 22.65, 152.39) 04/11/2025 15:34:34 ( 10.03, 149.38)
